This is the latest recevied weather packets stored in our database for station/object K9TLD. If no packets are shown the sender has not sent any weather packets the latest 10 day(s).
| Time | Temp. | Humidity | Pressure | Rain* | Wind** | Luminosity | Snow |
|---|---|---|---|---|---|---|---|
| 1778108539 | 7.22° C | 76% | 1014.7 hPa | 0 mm | - | 35 W/m² | - |
| 1778108235 | 7.22° C | 77% | 1014.6 hPa | 0 mm | - | 37 W/m² | - |
| 1778107932 | 7.22° C | 77% | 1014.4 hPa | 0 mm | - | 56 W/m² | - |
| 1778107629 | 7.22° C | 77% | 1014.5 hPa | 0 mm | - | 67 W/m² | - |
| 1778107326 | 7.22° C | 77% | 1014.5 hPa | 0 mm | - | 55 W/m² | - |
| 1778107022 | 7.22° C | 76% | 1014.6 hPa | 0 mm | - | 64 W/m² | - |
| 1778106718 | 7.22° C | 77% | 1014.6 hPa | 0 mm | - | 68 W/m² | - |
| 1778106415 | 7.22° C | 77% | 1014.2 hPa | 0 mm | - | 67 W/m² | - |
| 1778106111 | 7.22° C | 76% | 1014.4 hPa | 0 mm | - | 50 W/m² | - |
| 1778105809 | 7.22° C | 76% | 1014.3 hPa | 0 mm | - | 55 W/m² | - |
| 1778105507 | 7.22° C | 76% | 1014.4 hPa | 0 mm | - | 68 W/m² | - |
| 1778105203 | 7.22° C | 76% | 1014.3 hPa | 0 mm | - | 66 W/m² | - |
| 1778104898 | 7.78° C | 75% | 1014.4 hPa | 0 mm | - | 79 W/m² | - |
| 1778104595 | 7.78° C | 74% | 1014.6 hPa | 0 mm | - | 89 W/m² | - |
| 1778104286 | 7.78° C | 75% | 1014.5 hPa | 0 mm | - | 82 W/m² | - |
| 1778103983 | 7.78° C | 74% | 1014.4 hPa | 0 mm | - | 93 W/m² | - |
| 1778103680 | 7.78° C | 75% | 1014.5 hPa | 0 mm | - | 99 W/m² | - |
| 1778103378 | 7.78° C | 73% | 1014.5 hPa | 0 mm | - | 103 W/m² | - |
| 1778103075 | 7.78° C | 74% | 1014.5 hPa | 0 mm | - | 471 W/m² | - |
| 1778102772 | 7.78° C | 76% | 1014.3 hPa | 0 mm | - | 129 W/m² | - |
| 1778102467 | 7.22° C | 76% | 1014.6 hPa | 0 mm | - | 109 W/m² | - |
| 1778102163 | 7.78° C | 74% | 1014.4 hPa | 0 mm | - | 118 W/m² | - |
| 1778101860 | 7.78° C | 74% | 1014.5 hPa | 0 mm | - | 145 W/m² | - |
| 1778101556 | 7.78° C | 75% | 1014.6 hPa | 0 mm | - | 176 W/m² | - |
| 1778101247 | 7.78° C | 75% | 1014.6 hPa | 0 mm | - | 106 W/m² | - |
* Rain latest hour (hover to see other rain measurements)
** Current wind speed in m/s (hover to see current wind gust speed)